Regional Weather Roundup
Issued by NWS

Home | Current Version | Previous Version | Text Only | Print | Product List | Glossary Off
Versions: 1 2 3 4 5 6 7 8 9 10 11 12 13 14 15 16 17 18 19 20 21 22 23 24 25 26 27 28 29 30 31 32 33 34 35 36 37 38 39 40 41 42 43 44 45 46 47 48 49 50

000
ASUS45 KSLC 281210
RWRUT

UTAH REGIONAL WEATHER ROUNDUP
NATIONAL WEATHER SERVICE SALT LAKE CITY UT
600 AM MDT MON JUL 28 2014

UTZ001>011-023>025-281300-

NORTHERN UTAH

CITY           SKY/WX    TMP DP  RH WIND       PRES   REMARKS
HILL AFB       CLOUDY    74  40  28 SE12      30.20S
LOGAN          CLEAR     64  46  52 CALM      30.18S
OGDEN          MOCLDY    74  40  29 S7        30.17S
PROVO AIRPORT  CLOUDY    75  50  41 S8        30.23R
SALT LAKE CITY MOCLDY    80  47  31 VRB5      30.16R
VERNAL         MOCLDY    64  43  46 W6        30.28S
WENDOVER       CLOUDY    79  48  34 E7        30.15S
HEBER CITY     MOCLDY    61  50  67 CALM      30.30R
WEST JORDAN    CLEAR     79  57  47 S12       30.21R

$$

UTZ012>022-026-027-281300-

SOUTHERN UTAH

CITY           SKY/WX    TMP DP  RH WIND       PRES   REMARKS
BRYCE CANYON   MOCLDY    55  53  93 N6        30.47S
CEDAR CITY     CLOUDY    68  52  56 S8        30.28F
MILFORD        CLOUDY    71  52  50 SW9       30.25F
MOAB/CYNLANDS  PTCLDY    69  59  70 NW6       30.25R
PRICE          MOCLDY    69  48  47 NE7       30.35S
ST GEORGE      PTSUNNY   79  55  44 E8        30.15R

$$

REGIONAL REPORTS     COLORADO/ARIZONA

CITY           SKY/WX    TMP DP  RH WIND       PRES   REMARKS
CRAIG, CO      PTCLDY    44  44 100 CALM      30.38R
GRAND JUNCTION MOCLDY    68  48  48 CALM      30.30R
RIFLE          CLOUDY    64  48  56 CALM      30.35R
MONTROSE       CLOUDY    66  52  60 S9        30.39R
CORTEZ         MOCLDY    64  59  83 CALM      30.38F
PAGE, AZ       PTCLDY    74  52  46 SW6       30.24R
GRAND CANYON   CLOUDY    59  55  87 CALM      30.40R
KINGMAN        MOCLDY    77  55  46 SE13      30.15R
FLAGSTAFF      CLOUDY    57  53  86 CALM      30.42S

$$

REGIONAL REPORTS    NEVADA/IDAHO/WYOMING

CITY           SKY/WX    TMP DP  RH WIND       PRES   REMARKS
LAS VEGAS, NV  CLOUDY    82  62  50 S6        30.02S
ELY            CLOUDY    62  50  64 SE7       30.34R
ELKO           CLOUDY    72  47  40 CALM      30.21S
POCATELLO, ID  CLEAR     55  41  59 CALM      30.17S
BURLEY         MOCLDY    66  48  52 N3        30.12R
EVANSTON, WY   MOCLDY    61  29  29 E7        30.40R
ROCK SPRINGS   PTCLDY    60  46  59 NE9       30.39S

$$


USA.gov is the U.S. government's official web portal to all federal, state and local government web resources and services.